Weather History for KSRQ - November, 2014

Change the Weather History Date:

Sunday, November 9, 2014

  Actual Average Record
Temperature  
Mean Temperature 63 °F 70 °F  
Max Temperature 69 °F 80 °F 88 °F (1942)
Min Temperature 57 °F 61 °F 35 °F (1976)
Degree Days  
Heating Degree Days 2 0  
Month to date heating degree days 20 0  
Since 1 July heating degree days 20 3  
Cooling Degree Days 0 6  
Month to date cooling degree days 24 61  
Year to date cooling degree days 3359 3205  
Growing Degree Days 12 (Base 50)    
Moisture  
Dew Point 58 °F    
Average Humidity 89    
Maximum Humidity 100    
Minimum Humidity 68    
Precipitation  
Precipitation 0.18 in 0.06 in 2.02 in (1968)
Month to date precipitation 0.88 0.69  
Year to date precipitation 47.31 49.24  
Sea Level Pressure  
Sea Level Pressure 29.90 in    
Wind  
Wind Speed 6 mph (NNE)    
Max Wind Speed 14 mph    
Max Gust Speed 17 mph    
Visibility 9 miles    
Events Rain    
T = Trace of Precipitation, MM = Missing Value Source: NWS Daily Summary

Daily Weather History Graph

Daily Weather History Graph

Search for Another Location

Airport or City:

Trip Planner

Search our weather history database for the weather conditions in past years. The results will help you decide how hot, cold, wet, or windy it might be!

Date:

Astronomy

Nov. 09, 2014 Rise Set
Actual Time 6:46 AM EST 5:41 PM EST
Civil Twilight 6:21 AM EST 6:05 PM EST
Nautical Twilight 5:53 AM EST 6:33 PM EST
Astronomical Twilight 5:26 AM EST 7:01 PM EST
Moon 8:17 PM EST (11/9) 9:13 AM EST (11/9)
Length of Visible Light 11h 43m
Length of Day
10h 55m
Waning Gibbous, 91% of the Moon is Illuminated
Nov 9
Waning Gibbous
Nov 14
Last Quarter
Nov 22
New
Nov 29
First Quarter
Dec 6
Full

Hourly Weather History & Observations

Time (EST) Temp. Dew Point Humidity Pressure Visibility Wind Dir Wind Speed Gust Speed Precip Events Conditions
12:01 AM 59.0 °F 57.9 °F 96% 29.88 in 10.0 mi North 6.9 mph - 0.00 in Rain Light Rain
12:09 AM 59.0 °F 57.0 °F 93% 29.88 in 10.0 mi NNE 8.1 mph - 0.00 in Rain Light Rain
12:53 AM 57.9 °F 55.9 °F 93% 29.88 in 10.0 mi NE 6.9 mph - 0.00 in Rain Light Rain
1:41 AM 59.0 °F 57.9 °F 96% 29.88 in 9.0 mi NNW 6.9 mph - 0.01 in Rain Light Rain
1:50 AM 59.0 °F 57.2 °F 94% 29.87 in 5.0 mi NNW 6.9 mph - 0.03 in Rain Light Rain
1:53 AM 59.0 °F 57.9 °F 96% 29.87 in 4.0 mi NNW 6.9 mph - 0.03 in Rain Rain
2:36 AM 57.9 °F 57.0 °F 97% 29.86 in 6.0 mi North 6.9 mph - 0.09 in Rain Light Rain
2:48 AM 57.2 °F 57.2 °F 100% 29.86 in 8.0 mi North 9.2 mph - 0.10 in Rain Light Rain
2:53 AM 57.9 °F 57.0 °F 97% 29.86 in 9.0 mi North 9.2 mph - 0.11 in Rain Light Rain
3:16 AM 57.9 °F 55.9 °F 93% 29.86 in 10.0 mi North 6.9 mph - 0.01 in Rain Light Rain
3:53 AM 57.0 °F 55.9 °F 96% 29.87 in 4.0 mi NNE 9.2 mph - 0.03 in Rain Light Rain
4:39 AM 57.9 °F 57.0 °F 97% 29.88 in 8.0 mi North 5.8 mph - 0.01 in Rain Light Rain
4:53 AM 57.9 °F 57.0 °F 97% 29.88 in 5.0 mi NNE 4.6 mph - 0.01 in Rain Light Rain
5:24 AM 57.9 °F 57.9 °F 100% 29.89 in 5.0 mi NE 5.8 mph - 0.00 in   Overcast
5:53 AM 57.9 °F 57.0 °F 97% 29.90 in 10.0 mi NNE 6.9 mph - 0.00 in Rain Light Rain
6:53 AM 59.0 °F 57.0 °F 93% 29.91 in 10.0 mi NNE 8.1 mph - 0.00 in   Overcast
7:00 AM 57.9 °F 57.0 °F 97% 29.91 in 10.0 mi North 8.1 mph - N/A   Overcast
7:53 AM 59.0 °F 57.9 °F 96% 29.91 in 10.0 mi NNE 5.8 mph - N/A   Overcast
8:17 AM 60.1 °F 57.9 °F 93% 29.92 in 10.0 mi NNE 4.6 mph - N/A   Mostly Cloudy
8:53 AM 60.1 °F 57.9 °F 93% 29.91 in 10.0 mi NE 8.1 mph - N/A   Mostly Cloudy
9:42 AM 61.0 °F 59.0 °F 93% 29.94 in 10.0 mi NE 6.9 mph - 0.00 in   Overcast
9:49 AM 60.8 °F 57.2 °F 88% 29.93 in 10.0 mi North 9.2 mph - 0.00 in   Mostly Cloudy
9:53 AM 62.1 °F 59.0 °F 90% 29.94 in 10.0 mi NNE 8.1 mph - 0.00 in   Mostly Cloudy
10:09 AM 61.0 °F 57.0 °F 87% 29.95 in 10.0 mi North 8.1 mph - 0.00 in Rain Light Rain
10:21 AM 62.1 °F 57.0 °F 84% 29.94 in 10.0 mi North 9.2 mph - 0.00 in Rain Light Rain
10:44 AM 61.0 °F 57.0 °F 87% 29.95 in 10.0 mi NNE 6.9 mph - 0.00 in Rain Light Rain
10:53 AM 62.1 °F 57.0 °F 84% 29.94 in 10.0 mi NNE 8.1 mph - 0.00 in   Mostly Cloudy
11:00 AM 62.1 °F 57.0 °F 84% 29.94 in 10.0 mi NNE 6.9 mph - 0.00 in Rain Light Rain
11:53 AM 62.1 °F 57.9 °F 86% 29.92 in 10.0 mi North 10.4 mph - 0.00 in   Mostly Cloudy
12:53 PM 64.9 °F 57.9 °F 78% 29.89 in 10.0 mi NE 10.4 mph - N/A   Overcast
1:53 PM 66.0 °F 57.0 °F 73% 29.88 in 10.0 mi NE 9.2 mph - N/A   Partly Cloudy
2:53 PM 66.9 °F 57.9 °F 73% 29.87 in 10.0 mi NNE 6.9 mph - N/A   Clear
3:53 PM 68.0 °F 57.9 °F 70% 29.83 in 10.0 mi ENE 9.2 mph - N/A   Scattered Clouds
4:53 PM 66.9 °F 57.9 °F 73% 29.87 in 10.0 mi NNW 9.2 mph - N/A   Scattered Clouds
5:00 PM 66.9 °F 57.9 °F 73% 29.88 in 10.0 mi NNW 8.1 mph - N/A   Mostly Cloudy
5:08 PM 66.9 °F 57.9 °F 73% 29.89 in 10.0 mi North 5.8 mph - N/A   Scattered Clouds
5:53 PM 64.9 °F 57.9 °F 78% 29.90 in 10.0 mi North 3.5 mph - N/A   Clear
6:53 PM 62.1 °F 57.9 °F 86% 29.91 in 10.0 mi Calm Calm - N/A   Clear
7:53 PM 61.0 °F 59.0 °F 93% 29.92 in 10.0 mi North 3.5 mph - N/A   Clear
8:53 PM 61.0 °F 57.9 °F 90% 29.92 in 10.0 mi North 3.5 mph - N/A   Clear
9:53 PM 61.0 °F 59.0 °F 93% 29.92 in 10.0 mi Calm Calm - N/A   Clear
10:53 PM 61.0 °F 60.1 °F 97% 29.92 in 10.0 mi NNW 3.5 mph - N/A   Clear
11:53 PM 62.1 °F 60.1 °F 93% 29.93 in 10.0 mi Calm Calm - N/A   Clear